This is the latest recevied weather packets stored in our database for station/object AD5L. If no packets are shown the sender has not sent any weather packets the latest 1 day(s).
| Time | Temp. | Humidity | Pressure | Rain* | Wind** | Luminosity | Snow |
|---|---|---|---|---|---|---|---|
| 1836274582 | 26.67° C | 62% | 1016.4 hPa | 0 mm | 0 m/s | - | - |
| 1836274441 | 26.67° C | 63% | 1016.5 hPa | 0 mm | 0 m/s | - | - |
| 1836273992 | 26.67° C | 62% | 1016.5 hPa | 0 mm | 0 m/s | - | - |
| 1778052203 | 24.44° C | 91% | 1008.6 hPa | 0 mm | 2.24 m/s, 124° | - | - |
| 1778051613 | 24.44° C | 92% | 1008.6 hPa | 0 mm | 3.13 m/s, 182° | - | - |
| 1778051004 | 24.44° C | 92% | 1008.6 hPa | 0 mm | 0.89 m/s, 191° | - | - |
| 1778050415 | 24.44° C | 92% | 1008.7 hPa | 0 mm | 0.89 m/s, 148° | - | - |
| 1778049806 | 24.44° C | 92% | 1008.7 hPa | 0 mm | 0.89 m/s, 143° | - | - |
| 1778049216 | 24.44° C | 92% | 1008.6 hPa | 0 mm | 2.24 m/s, 176° | - | - |
| 1778048604 | 24.44° C | 92% | 1008.5 hPa | 0 mm | 2.24 m/s, 103° | - | - |
| 1778048015 | 24.44° C | 92% | 1008.4 hPa | 0 mm | 1.34 m/s, 126° | - | - |
| 1778047405 | 24.44° C | 92% | 1008.5 hPa | 0 mm | 1.34 m/s, 157° | - | - |
| 1778046817 | 24.44° C | 92% | 1008.4 hPa | 0 mm | 1.34 m/s, 130° | - | - |
| 1778046208 | 24.44° C | 92% | 1008.4 hPa | 0 mm | 1.79 m/s, 146° | - | - |
| 1778045615 | 24.44° C | 92% | 1008.5 hPa | 0 mm | 3.13 m/s, 143° | - | - |
| 1778045026 | 24.44° C | 92% | 1008.5 hPa | 0 mm | 1.34 m/s, 165° | - | - |
| 1778044417 | 24.44° C | 92% | 1008.5 hPa | 0 mm | 1.34 m/s, 140° | - | - |
| 1778043830 | 24.44° C | 92% | 1008.6 hPa | 0 mm | 2.24 m/s, 157° | - | - |
| 1778043211 | 24.44° C | 92% | 1008.6 hPa | 0 mm | 2.24 m/s, 146° | - | - |
| 1778042619 | 24.44° C | 92% | 1008.5 hPa | 0 mm | 1.79 m/s, 186° | - | - |
| 1778042030 | 24.44° C | 92% | 1008.6 hPa | 0 mm | 1.79 m/s, 108° | - | - |
| 1778041421 | 24.44° C | 91% | 1008.4 hPa | 0 mm | 0.89 m/s, 157° | - | - |
| 1778040803 | 24.44° C | 91% | 1008.4 hPa | 0 mm | 1.34 m/s, 164° | - | - |
| 1778040224 | 24.44° C | 91% | 1008.5 hPa | 0 mm | 0.45 m/s, 160° | - | - |
| 1778039605 | 25° C | 90% | 1008.3 hPa | 0 mm | 0.45 m/s, 163° | - | - |
* Rain latest hour (hover to see other rain measurements)
** Current wind speed in m/s (hover to see current wind gust speed)